EW2832 Weather Reports


Display with metric or nautical units.
time (UTC)temp
F
wind
direction
speed
MPH
gust
MPH
rain 1hr
in
rain 24hr
in
rain mn
in
humidity
%
barometer
mb
20260506135007 50 24 6.0 9.0 0.01 0.30 0.01 41 1011.6
20260506134005 50 4 9.0 10.0 0.01 0.30 0.01 40 1011.2
20260506133505 50 351 9.0 10.0 0.00 0.28 0.00 42 1011.1
20260506133006 50 346 7.0 10.0 0.00 0.28 0.00 42 1011.3
20260506132506 49 4 6.0 9.0 0.00 0.28 0.00 45 1011.3
20260506132005 49 359 7.0 11.0 0.00 0.28 0.00 43 1011.3
20260506131505 49 356 7.0 11.0 0.00 0.28 0.00 44 1011.2
20260506131006 49 5 7.0 8.0 0.00 0.28 0.00 44 1011.0
20260506130005 48 11 7.0 11.0 0.00 0.28 0.00 44 1010.7
20260506125507 48 16 7.0 15.0 0.00 0.28 0.00 46 1010.6
20260506125005 48 14 6.0 15.0 0.00 0.28 0.00 49 1010.7
20260506124505 48 4 5.0 7.0 0.00 0.28 0.00 53 1010.5
20260506124006 47 352 6.0 8.0 0.00 0.28 0.00 56 1010.5
20260506123005 47 343 5.0 7.0 0.00 0.28 0.00 55 1010.6
20260506122506 47 346 5.0 7.0 0.00 0.28 0.00 55 1010.7
20260506122005 47 2 5.0 6.0 0.00 0.28 0.00 54 1010.3
20260506121506 47 9 5.0 10.0 0.00 0.28 0.00 54 1010.4
20260506121005 47 26 5.0 10.0 0.00 0.28 0.00 53 1010.4
20260506120506 47 19 5.0 7.0 0.00 0.28 0.00 54 1010.4
20260506120005 47 1 5.0 7.0 0.00 0.28 0.00 54 1010.3
20260506115506 47 356 4.0 6.0 0.00 0.28 0.00 54 1010.3
20260506115005 47 356 5.0 7.0 0.00 0.00 0.00 55 1010.3
20260506113505 47 357 6.0 9.0 0.00 0.00 0.00 55 1009.8
20260506113004 47 328 8.0 10.0 0.00 0.00 0.00 55 1009.6
20260506112504 47 320 7.0 10.0 0.00 0.00 0.00 55 1009.8
20260506112006 47 339 5.0 6.0 0.00 0.00 0.00 58 1009.4
20260506111505 47 342 4.0 6.0 0.00 0.00 0.00 58 1009.3
20260506111006 46 354 4.0 5.0 0.00 0.00 0.00 59 1009.4
20260506110505 46 352 4.0 5.0 0.00 0.00 0.00 59 1009.4
20260506110005 46 334 3.0 5.0 0.00 0.00 0.00 59 1009.2
20260506105505 46 319 3.0 5.0 0.00 0.00 0.00 59 1009.3
20260506105006 46 317 3.0 4.0 0.00 0.00 0.00 59 1009.3
20260506104005 46 311 3.0 4.0 0.00 0.00 0.00 58 1008.9
20260506103505 46 278 3.0 4.0 0.00 0.00 0.00 58 1008.8
20260506103006 46 286 2.0 4.0 0.00 0.00 0.00 58 1009.0
20260506102006 46 314 1.0 3.0 0.00 0.00 0.00 58 1008.8
20260506101506 46 317 1.0 3.0 0.00 0.00 0.00 57 1008.6
20260506101005 47 323 0.0 2.0 0.00 0.00 0.00 57 1008.3
20260506100504 47 319 1.0 4.0 0.00 0.00 0.00 56 1008.4
20260506095505 47 313 2.0 4.0 0.00 0.00 0.00 55 1008.8
20260506095006 47 294 3.0 5.0 0.00 0.00 0.00 54 1008.7
20260506094505 47 275 3.0 5.0 0.00 0.00 0.00 54 1008.6
20260506094006 47 266 3.0 4.0 0.00 0.00 0.00 54 1009.0
20260506093505 48 258 4.0 7.0 0.00 0.00 0.00 55 1008.8
20260506093005 48 251 5.0 7.0 0.00 0.00 0.00 55 1008.9
20260506092505 48 256 6.0 7.0 0.00 0.00 0.00 55 1009.0
20260506092005 47 254 6.0 7.0 0.00 0.00 0.00 54 1009.0
20260506091506 48 258 4.0 6.0 0.00 0.00 0.00 53 1008.9
20260506090505 48 280 4.0 4.0 0.00 0.00 0.00 53 1008.8
20260506090004 48 295 4.0 6.0 0.00 0.00 0.00 53 1008.6
20260506085505 48 270 5.0 8.0 0.00 0.00 0.00 52 1008.7
20260506085005 48 275 7.0 11.0 0.00 0.00 0.00 53 1008.9
20260506084505 48 264 8.0 11.0 0.00 0.00 0.00 53 1009.2
20260506084005 48 230 8.0 10.0 0.00 0.00 0.00 53 1009.3
20260506083505 48 223 9.0 11.0 0.00 0.00 0.00 54 1008.9
20260506083005 48 230 8.0 11.0 0.00 0.00 0.00 53 1008.5
20260506082004 48 226 10.0 11.0 0.00 0.00 0.00 54 1008.6
20260506081505 48 227 9.0 10.0 0.00 0.00 0.00 54 1008.5
20260506080505 48 225 10.0 11.0 0.00 0.00 0.00 54 1008.5
20260506073505 47 228 8.0 11.0 0.00 0.00 0.00 56 1008.6
20260506073005 47 222 8.0 9.0 0.00 0.00 0.00 57 1008.6
20260506072506 47 227 8.0 9.0 0.00 0.00 0.00 58 1008.6
20260506072006 47 229 7.0 8.0 0.00 0.00 0.00 59 1008.7
20260506071505 47 224 7.0 9.0 0.00 0.00 0.00 59 1008.5
20260506071005 47 225 7.0 9.0 0.00 0.00 0.00 59 1008.8
20260506062005 46 217 8.0 9.0 0.00 0.00 0.00 65 1009.0
20260506061505 46 216 7.0 9.0 0.00 0.00 0.00 67 1008.9
20260506061005 45 209 5.0 8.0 0.00 0.00 0.00 68 1009.1
20260506060504 44 224 4.0 4.0 0.00 0.00 0.00 69 1009.3
20260506051004 44 312 3.0 3.0 0.00 0.00 0.00 68 1009.5
20260506050505 44 314 3.0 4.0 0.00 0.00 0.00 68 1009.4
20260506045004 45 318 3.0 4.0 0.01 0.00 0.00 69 1009.6
20260506044504 45 318 3.0 4.0 0.01 0.00 0.00 69 1009.5
20260506044005 45 325 3.0 4.0 0.01 0.00 0.00 70 1009.5
20260506043506 46 331 3.0 4.0 0.01 0.00 0.00 70 1009.5
20260506043005 46 327 2.0 3.0 0.02 0.00 0.00 70 1009.3
20260506042506 46 335 2.0 2.0 0.02 0.00 0.00 70 1009.2
20260506041004 47 312 2.0 3.0 0.02 0.00 0.00 70 1009.2
20260506040505 47 329 2.0 2.0 0.04 0.00 0.00 70 1009.0
20260506040006 47 328 2.0 3.0 0.04 0.00 0.00 70 1009.1
20260506035505 47 308 2.0 3.0 0.04 0.00 0.28 70 1009.0
20260506035005 47 281 2.0 2.0 0.02 0.00 0.27 70 1009.2
20260506034504 47 278 2.0 4.0 0.04 0.00 0.27 70 1009.3
20260506034004 47 296 2.0 4.0 0.04 0.00 0.27 70 1009.3
20260506033505 48 284 2.0 3.0 0.04 0.00 0.27 70 1009.3
20260506033005 48 292 1.0 3.0 0.02 0.00 0.26 70 1009.3
20260506032504 48 339 1.0 3.0 0.02 0.00 0.26 70 1009.2
20260506032004 48 329 2.0 4.0 0.04 0.00 0.26 70 1009.2
20260506031505 49 323 2.0 4.0 0.04 0.00 0.26 70 1009.3
20260506031006 49 317 3.0 3.0 0.04 0.00 0.26 70 1009.3
20260506030506 49 308 3.0 4.0 0.04 0.00 0.25 71 1009.2
20260506030005 49 283 3.0 4.0 0.04 0.00 0.25 71 1009.3
20260506024505 50 264 4.0 5.0 0.02 0.00 0.24 72 1009.4
20260506024005 50 270 4.0 6.0 0.02 0.00 0.24 72 1009.4
20260506023504 50 285 5.0 6.0 0.02 0.00 0.24 71 1009.5
20260506023005 51 275 5.0 6.0 0.02 0.00 0.24 71 1009.5
20260506022504 50 258 4.0 6.0 0.02 0.00 0.24 71 1009.6
20260506022004 50 254 5.0 7.0 0.01 0.00 0.22 71 1009.5
20260506021505 50 254 6.0 8.0 0.01 0.00 0.22 70 1009.3
20260506021004 50 253 7.0 8.0 0.01 0.00 0.22 70 1009.2
20260506020504 50 254 7.0 8.0 0.00 0.00 0.21 70 1009.1
20260506020005 50 269 5.0 8.0 0.00 0.00 0.21 70 1009.2
20260506015504 50 278 4.0 6.0 0.00 0.00 0.21 69 1009.1
20260506015005 50 277 4.0 6.0 0.00 0.00 0.21 68 1008.9
20260506014505 50 261 4.0 7.0 0.00 0.00 0.21 68 1008.9
20260506013005 50 291 4.0 7.0 0.01 0.00 0.21 68 1008.6
20260506012505 50 264 4.0 6.0 0.01 0.00 0.21 68 1008.6
20260506012005 50 272 4.0 8.0 0.01 0.00 0.21 68 1008.6
20260506011504 50 275 4.0 8.0 0.01 0.00 0.21 68 1008.5
20260506011004 51 270 3.0 5.0 0.01 0.00 0.21 68 1008.5
20260506010505 51 256 5.0 10.0 0.02 0.00 0.21 67 1008.6
20260506010004 51 233 8.0 10.0 0.02 0.00 0.21 67 1008.6
20260506005504 51 231 11.0 15.0 0.02 0.00 0.21 67 1008.7
20260506005004 51 230 13.0 15.0 0.02 0.00 0.21 67 1008.7
20260506004505 51 225 13.0 15.0 0.02 0.00 0.21 67 1008.7
20260506004005 51 227 13.0 15.0 0.01 0.00 0.20 66 1008.6
20260506003505 51 227 12.0 15.0 0.01 0.00 0.20 67 1008.7
20260506003005 51 225 12.0 15.0 0.01 0.00 0.20 66 1008.7
20260506002505 51 225 12.0 14.0 0.01 0.00 0.20 67 1008.7
20260506002004 51 225 12.0 13.0 0.01 0.00 0.20 67 1008.5
20260506001504 51 224 12.0 13.0 0.01 0.00 0.20 67 1008.3
20260506001004 51 224 11.0 12.0 0.02 0.00 0.20 67 1008.4
20260506000504 51 225 11.0 12.0 0.01 0.00 0.19 68 1008.4
20260506000004 51 225 10.0 12.0 0.01 0.00 0.19 68 1008.1
20260505235504 51 224 10.0 11.0 0.01 0.00 0.19 68 1008.1
20260505235004 51 224 10.0 11.0 0.01 0.00 0.19 68 1008.1
20260505234504 51 225 9.0 10.0 0.01 0.00 0.19 68 1008.1
20260505234005 50 225 8.0 10.0 0.01 0.00 0.19 68 1007.9
20260505233505 50 225 8.0 9.0 0.02 0.00 0.19 68 1007.9
20260505232505 50 246 4.0 7.0 0.02 0.00 0.19 66 1007.9
20260505232005 50 270 4.0 7.0 0.04 0.00 0.19 66 1007.9
20260505231504 50 250 5.0 8.0 0.05 0.00 0.19 66 1008.1
20260505231005 50 231 6.0 8.0 0.04 0.00 0.18 66 1008.1
20260505230504 50 225 8.0 11.0 0.06 0.00 0.18 66 1007.9
20260505225504 50 225 7.0 10.0 0.06 0.00 0.18 66 1008.2
20260505225005 50 236 5.0 8.0 0.06 0.00 0.18 65 1008.1
20260505224504 50 252 4.0 6.0 0.07 0.00 0.18 64 1008.1
20260505224005 50 255 3.0 4.0 0.07 0.00 0.18 64 1008.1
20260505223005 50 257 2.0 4.0 0.07 0.00 0.17 63 1007.9
20260505222504 50 296 3.0 4.0 0.07 0.00 0.17 63 1007.9
20260505221505 51 271 4.0 6.0 0.06 0.00 0.14 61 1008.2
20260505221004 51 244 4.0 5.0 0.06 0.00 0.14 60 1008.3
20260505220504 51 248 4.0 7.0 0.04 0.00 0.12 60 1008.1
20260505220004 51 279 4.0 7.0 0.04 0.00 0.12 60 1008.1
20260505215504 51 296 4.0 5.0 0.04 0.00 0.12 60 1008.1
20260505215005 51 288 4.0 8.0 0.02 0.00 0.11 60 1007.8
20260505214505 52 281 4.0 8.0 0.02 0.00 0.11 60 1008.2
20260505214004 51 294 4.0 5.0 0.04 0.00 0.11 61 1008.2
20260505213504 52 276 4.0 5.0 0.02 0.00 0.09 60 1008.1
20260505213005 52 273 4.0 5.0 0.02 0.00 0.09 60 1007.9
20260505212504 52 274 4.0 5.0 0.02 0.00 0.09 61 1008.1
20260505212005 52 264 3.0 4.0 0.01 0.00 0.08 61 1007.9
20260505211504 52 270 3.0 4.0 0.01 0.00 0.08 61 1008.0
20260505210504 52 263 4.0 5.0 0.02 0.00 0.08 62 1008.0
20260505210005 52 260 3.0 5.0 0.02 0.00 0.08 62 1008.2
20260505205004 52 289 3.0 4.0 0.02 0.00 0.08 63 1008.2
20260505204005 52 300 4.0 4.0 0.02 0.00 0.07 63 1008.2
20260505203504 52 296 4.0 6.0 0.04 0.00 0.07 63 1008.3
20260505203004 52 315 4.0 8.0 0.04 0.00 0.07 63 1008.3
20260505202504 52 316 5.0 8.0 0.05 0.00 0.07 63 1008.2
20260505202004 52 303 5.0 8.0 0.06 0.00 0.07 63 1008.5
20260505201004 52 23 2.0 4.0 0.07 0.00 0.07 64 1008.6
20260505200504 52 6 3.0 4.0 0.06 0.00 0.06 63 1008.5
20260505195505 52 300 4.0 5.0 0.06 0.00 0.06 63 1009.0
20260505194504 52 302 3.0 7.0 0.05 0.00 0.05 62 1008.4
20260505194004 52 337 4.0 7.0 0.05 0.00 0.05 61 1008.4
20260505192503 53 307 8.0 14.0 0.02 0.00 0.02 56 1008.2
20260505192004 53 315 7.0 10.0 0.01 0.00 0.01 53 1008.6
20260505191505 54 348 6.0 10.0 0.00 0.00 0.00 53 1008.5
20260505191004 55 355 9.0 10.0 0.00 0.00 0.00 51 1008.4
20260505190503 56 348 8.0 11.0 0.00 0.00 0.00 45 1008.2
20260505190004 56 348 9.0 11.0 0.00 0.00 0.00 46 1008.0
20260505185504 57 359 8.0 11.0 0.00 0.00 0.00 39 1008.1
20260505185005 57 347 7.0 12.0 0.00 0.00 0.00 39 1008.1
20260505184004 59 324 8.0 11.0 0.00 0.00 0.00 34 1008.1
20260505183504 60 298 8.0 11.0 0.00 0.00 0.00 31 1007.9
20260505183004 61 266 7.0 9.0 0.00 0.00 0.00 30 1007.9
20260505182505 61 285 7.0 11.0 0.00 0.00 0.00 30 1007.7
20260505182004 61 304 7.0 11.0 0.00 0.00 0.00 30 1007.5
20260505181504 61 296 7.0 10.0 0.00 0.00 0.00 30 1007.3
20260505181004 61 288 8.0 10.0 0.00 0.00 0.00 30 1007.4
20260505180504 60 273 8.0 10.0 0.00 0.00 0.00 30 1007.4
20260505175004 60 242 8.0 12.0 0.00 0.00 0.00 30 1007.3
20260505174505 60 247 8.0 12.0 0.00 0.00 0.00 30 1007.3
20260505174005 60 263 8.0 13.0 0.00 0.00 0.00 30 1007.0
20260505173504 60 264 10.0 13.0 0.00 0.00 0.00 30 1007.1
20260505172504 60 238 13.0 17.0 0.00 0.00 0.00 30 1007.2
20260505172003 60 240 14.0 17.0 0.00 0.00 0.00 30 1007.3
20260505171504 60 243 13.0 16.0 0.00 0.00 0.00 30 1007.3
20260505171005 60 270 11.0 16.0 0.00 0.00 0.00 30 1007.5
20260505170504 60 286 10.0 15.0 0.00 0.00 0.00 30 1007.4
20260505165504 61 252 10.0 12.0 0.00 0.00 0.00 30 1007.2
20260505165005 60 246 11.0 15.0 0.00 0.00 0.00 30 1007.2
20260505164504 60 245 10.0 15.0 0.00 0.00 0.00 31 1007.2
20260505164004 60 274 10.0 16.0 0.00 0.00 0.00 31 1007.4
20260505163503 60 264 11.0 16.0 0.00 0.00 0.00 33 1007.4
20260505163004 60 262 11.0 16.0 0.00 0.00 0.00 36 1007.3
20260505162505 59 254 11.0 14.0 0.00 0.00 0.00 39 1007.4
20260505162004 58 237 13.0 18.0 0.00 0.00 0.00 51 1007.3
20260505161503 58 233 15.0 18.0 0.00 0.00 0.00 55 1007.2
20260505161004 58 225 15.0 17.0 0.00 0.00 0.00 55 1007.1
20260505160506 59 225 15.0 17.0 0.00 0.00 0.00 52 1007.2
20260505153004 62 238 14.0 21.0 0.00 0.00 0.00 42 1006.5
20260505151504 61 270 14.0 16.0 0.00 0.00 0.00 43 1006.2
20260505140504 58 225 18.0 19.0 0.00 0.00 0.00 65 1005.0